Вернуться в каталог

COSMOS 970

АктивенВоенныеLEO
NORAD 10531·PAYLOAD·🇷🇺 Russia

Запущен Dec 21, 1977 с Baikonur Cosmodrome

Loading…

Ближайшие Пролёты (ближайшие 24 часа)

TLE

СвежийSource: Space-Track

Эпоха: Sep 14, 2026, 12:42 UTC

1 10531U 77121A   26257.52983112 -.00000059  00000-0  22517-4 0  9997
2 10531  65.8537 305.6323 0140662 158.5308 202.1728 13.59869659811594

Отслеживайте COSMOS 970 в реальном времени с AllMySat

Download on the App Store